Regional Weather Roundup
Issued by NWS Little Rock, AR

Home | Current Version | Previous Version | Graphics & Text | Print | Product List | Glossary On
Versions: 1 2 3 4 5 6 7 8 9 10 11 12 13 14 15 16 17 18 19 20 21 22 23 24 25 26 27 28 29 30 31 32 33 34 35 36 37 38 39
000
ASUS44 KLZK 200605
RWRLZK

WEATHER ROUNDUP FOR ARKANSAS
NATIONAL WEATHER SERVICE LITTLE ROCK AR
100 AM CDT WED SEP 20 2017

NOTE: "FAIR" INDICATES FEW OR NO CLOUDS BELOW 12,000 FEET WITH NO
SIGNIFICANT WEATHER AND/OR OBSTRUCTIONS TO VISIBILITY.

ARZ001-003-010-029-200700-
NORTHWEST ARKANSAS

CITY           SKY/WX    TMP DP  RH WIND       PRES   REMARKS
FAYETTEVILLE   CLOUDY    74  72  93 S6        29.88S
6HR MIN TEMP:  68; 6HR MAX TEMP:  82;

FORT SMITH     PTCLDY    78  72  81 E6        29.85S
6HR MIN TEMP:  78; 6HR MAX TEMP:  88;

HARRISON       CLEAR     74  69  85 S3        29.89F
6HR MIN TEMP:  72; 6HR MAX TEMP:  82;

BENTONVILLE    CLEAR     75  70  84 S9        29.88F
6HR MIN TEMP:  75; 6HR MAX TEMP:  83;

ROGERS         CLEAR     73  69  87 SE7       29.88F
6HR MIN TEMP:  73; 6HR MAX TEMP:  82;

SILOAM SPGS    CLOUDY    76  70  82 S13       29.86F
6HR MIN TEMP:  76; 6HR MAX TEMP:  84;

HIGHFILL       CLEAR     75  71  87 S8        29.87F
6HR MIN TEMP:  73; 6HR MAX TEMP:  83;

$$

ARZ004-005-016-200700-
NORTH CENTRAL ARKANSAS

CITY           SKY/WX    TMP DP  RH WIND       PRES   REMARKS
BATESVILLE     CLEAR    N/A N/A N/A S6        29.90F
FLIPPIN        CLEAR     77  70  79 SE3       29.88F
6HR MIN TEMP:  75; 6HR MAX TEMP:  85;

MTN HOME       CLEAR     75  71  87 S5        29.88F
6HR MIN TEMP:  74; 6HR MAX TEMP:  82;

$$

ARZ040-041-200700-
WEST CENTRAL ARKANSAS

CITY           SKY/WX    TMP DP  RH WIND       PRES   REMARKS
MENA           CLOUDY    81  79  94 S7        29.91S HX  89
MOUNT IDA      PTCLDY    80  72  76 MISG      29.89S
6HR MIN TEMP:  77; 6HR MAX TEMP:  84;

$$

ARZ009-017-025-026-028-200700-
NORTHEAST ARKANSAS

CITY           SKY/WX    TMP DP  RH WIND       PRES   REMARKS
CORNING        FAIR      73  72  94 SE5       29.90S
JONESBORO      PTCLDY    75  73  93 CALM      29.90S
6HR MIN TEMP:  73; 6HR MAX TEMP:  84;

NEWPORT        CLEAR     72  71  97 S6        29.90F
6HR MIN TEMP:  72; 6HR MAX TEMP:  82;

BLYTHEVILLE    CLEAR     74  72  93 S6        29.92S
6HR MIN TEMP:  74; 6HR MAX TEMP:  85;

$$

ARZ022-023-033-042-044-200700-
CENTRAL ARKANSAS

CITY           SKY/WX    TMP DP  RH WIND       PRES   REMARKS
LITTLE ROCK    MOCLDY    75  73  93 SW5       29.90F
6HR MIN TEMP:  75; 6HR MAX TEMP:  83;

JACKSONVILLE   CLEAR     75  73  92 CALM      29.90F
6HR MIN TEMP:  75; 6HR MAX TEMP:  87;

CONWAY           N/A     79  73  83 SW6       29.88F
SEARCY         CLEAR     72  72 100 S3        29.92S
6HR MIN TEMP:  72; 6HR MAX TEMP:  84;

HOT SPRINGS    PTCLDY    79  74  84 CALM      29.91F
6HR MIN TEMP:  79; 6HR MAX TEMP:  86;

RUSSELLVILLE   CLEAR     76  72  87 S5        29.88F
6HR MIN TEMP:  73; 6HR MAX TEMP:  87;

CLINTON        FAIR      70  70 100 CALM      29.90F FOG
$$

ARZ036-200700-
EAST ARKANSAS

CITY           SKY/WX    TMP DP  RH WIND       PRES   REMARKS
WEST MEMPHIS   CLEAR     74  73  97 S6        29.91S
6HR MIN TEMP:  73; 6HR MAX TEMP:  81;

$$

ARZ050-053-066-070-073-200700-
SOUTHWEST ARKANSAS

CITY           SKY/WX    TMP DP  RH WIND       PRES   REMARKS
ARKADELPHIA    FAIR      71  70  96 CALM      29.90F
6HR MIN TEMP:  71; 6HR MAX TEMP:  82;

CAMDEN         FOG       73  70  88 CALM      29.90S VSB 1
TEXARKANA      CLEAR     77  73  87 S8        29.90S
6HR MIN TEMP:  77; 6HR MAX TEMP:  83;

EL DORADO      PTCLDY    76  73  91 S5        29.92S
6HR MIN TEMP:  76; 6HR MAX TEMP:  83;

$$

ARZ056-057-069-200700-
SOUTHEAST ARKANSAS

CITY           SKY/WX    TMP DP  RH WIND       PRES   REMARKS
PINE BLUFF     CLEAR     72  71  97 CALM      29.91F
6HR MIN TEMP:  71; 6HR MAX TEMP:  84;

STUTTGART      CLEAR     77  73  87 S6        29.92S
6HR MIN TEMP:  74; 6HR MAX TEMP:  86;

MONTICELLO     CLEAR     76  71  85 CALM      29.92F
6HR MIN TEMP:  74; 6HR MAX TEMP:  84;


$$






USA.gov is the U.S. government's official web portal to all federal, state and local government web resources and services.